EXPRESS-AM3

Last updated on Oct. 1, 2020, 5:42 a.m. UTC

1 28707U 05023A   20274.95284890 -.00000333  00000-0  00000+0 0  9993
2 28707   2.0792  89.8286 0002495  32.8018 333.5508  1.00268482 55939
UTC
Height (km)
Latitude
Longitude
Inclination
Orbital Period
UTC large
Height (km)
Speed (km/s)
/
Latitude / Longitude
Inclination (degrees)
Orbital Period (minutes)
Azimuth
Elevation
Range (km)
Doppler Factor
iOS Compass Heading
iOS Angle

Next 30 passes for location: Hong Kong

Rise time Rise Azimuth (degrees) Set time Set Azimuth (degrees) Duration Max altitude (degrees)

No matching passes for this satellites